Flag for Russia Weather past 2 weeks in Saratov, Russia

Now
28 °F

Clear.


Feels Like: 18 °F
Forecast: 28 / 41 °F
Wind: 13 mph from Southeast

Location: Saratov / Tsentralny

Current Time: Apr 1, 2015 at 2:52:39 AM

Latest Report: Apr 1, 2015 at 2:30 AM


Visibility: 10 mi

Pressure: 30.15 "Hg

Humidity: 74%

Dew point: 21 °F

Location of SaratovLocation

Historic Weather in Saratov — Graph

°F

Saratov temperature yesterday

Maximum temperature yesterday: 41 °F (at 4:00 PM)
Minimum temperature yesterday: 21 °F (at 6:00 AM)
Average temperature yesterday: 31 °F

Past Weeks' High & Low Weather Summary

 TemperatureHumidityPressure
High54 °F (Mar 26, 1:00 PM)100% (Mar 23, 12:00 AM)30.83 "Hg (Mar 23, 12:00 AM)
Low-26 °F (Mar 23, 4:00 AM)39% (Mar 31, 4:00 PM)29.62 "Hg (Mar 22, 7:00 PM)
Average33 °F66%30.31 "Hg
* Reported Mar 17 2:00 AM — Apr 1 2:00 AM, Saratov, Weather by CustomWeather, © 2015

Note: Actual official high and low records may vary slightly from our data, if they occured in-between our weather recording intervals... More about our weather records

Advertising

Saratov weather history for previous 24 hours

 ConditionsComfort  
Time TempWeatherWind HumidityBarometerVisibility
2:00 AM
Wed, Apr 1
28 °FClear.13 mph74%30.15 "Hg10 mi
1:30 AM30 °FClear.13 mph64%30.18 "Hg10 mi
1:00 AM30 °FClear.13 mph64%30.18 "Hg10 mi
12:30 AM30 °FClear.17 mph64%30.18 "Hg10 mi
12:00 AM30 °FClear.13 mph64%30.18 "Hg10 mi
11:30 PM
Tue, Mar 31
34 °FClear.13 mph56%30.18 "Hg10 mi
11:00 PM34 °FClear.15 mph56%30.18 "Hg10 mi
10:30 PM34 °FClear.15 mph56%30.18 "Hg10 mi
10:00 PM34 °FClear.15 mph56%30.18 "Hg10 mi
9:30 PM34 °FClear.13 mph65%30.21 "Hg10 mi
9:00 PM34 °FClear.10 mph65%30.21 "Hg10 mi
8:30 PM36 °FClear.13 mph56%30.21 "Hg10 mi
8:00 PM36 °FClear.13 mph56%30.21 "Hg10 mi
7:30 PM37 °FClear.15 mph45%30.21 "Hg10 mi
7:00 PM37 °FSunny.15 mph45%30.21 "Hg10 mi
6:30 PM39 °FSunny.15 mph42%30.21 "Hg10 mi
6:00 PM39 °FSunny.17 mph42%30.21 "Hg10 mi
5:30 PM41 °FSunny.17 mph42%30.24 "Hg10 mi
5:00 PM41 °FSunny.22 mph42%30.24 "Hg10 mi
4:30 PM41 °FSunny.20 mph39%30.24 "Hg10 mi
4:00 PM41 °FSunny.20 mph39%30.24 "Hg10 mi
3:30 PM39 °FSunny.20 mph45%30.27 "Hg10 mi
3:00 PM39 °FSunny.20 mph45%30.27 "Hg10 mi
2:30 PM37 °FSunny.20 mph48%30.30 "Hg10 mi
2:00 PM37 °FSunny.17 mph48%30.30 "Hg10 mi
1:30 PM36 °FSunny.17 mph56%30.30 "Hg10 mi
1:00 PM36 °FSunny.17 mph56%30.30 "Hg10 mi
12:30 PM34 °FSunny.17 mph60%30.30 "Hg10 mi
12:00 PM34 °FSunny.17 mph60%30.30 "Hg10 mi
11:30 AM32 °FSunny.17 mph55%30.33 "Hg10 mi
11:00 AM32 °FSunny.17 mph55%30.33 "Hg10 mi
10:30 AM28 °FSunny.15 mph80%30.33 "Hg10 mi
10:00 AM28 °FSunny.15 mph80%30.33 "Hg10 mi
9:30 AM27 °FSunny.15 mph80%30.36 "Hg10 mi
9:00 AM27 °FSunny.15 mph80%30.36 "Hg10 mi
8:30 AM23 °FSunny.15 mph86%30.36 "Hg10 mi
8:00 AM23 °FSunny.17 mph86%30.36 "Hg10 mi
7:30 AM21 °FSunny.15 mph93%30.36 "Hg10 mi
7:00 AM21 °FSunny.15 mph93%30.36 "Hg10 mi
6:30 AM21 °FClear.13 mph93%30.36 "Hg10 mi
6:00 AM21 °FClear.13 mph93%30.36 "Hg10 mi
5:30 AM23 °FClear.13 mph86%30.36 "Hg10 mi
5:00 AM23 °FClear.13 mph86%30.36 "Hg10 mi
4:30 AM23 °FClear.13 mph86%30.36 "Hg10 mi
4:00 AM23 °FClear.13 mph86%30.36 "Hg10 mi
3:30 AM23 °FClear.13 mph74%30.36 "Hg10 mi
3:00 AM23 °FClear.13 mph74%30.36 "Hg10 mi
2:30 AM25 °FClear.10 mph69%30.36 "Hg10 mi
2:00 AM25 °FClear.10 mph69%30.36 "Hg10 mi
Weather by CustomWeather, © 2015

See weather overviewHow to use our weather pages